Location: ActonStarParty
(42.4766°N, 71.4538°W)
Time: 02:49:16
(UTC-05:00)

Amateur Radio Satellites - All Passes

Search period start: 08 December 2016 02:19
Search period end: 09 December 2016 02:19
Location: ActonStarParty, 42.4766°N, 71.4538°W

Satellite Date Start Highest point End Downlink Frequencies (MHz)
Time Altitude Azimuth
PHONESAT 2.4 08 Dec 02:38:51 02:41:21 38° 193° (SSW) 02:43:50 2401.200-2431.200
Oscar 19 08 Dec 02:39:44 02:43:35 21° 297° (WNW) 02:47:26 437.125/150
ITUPSAT 1 08 Dec 02:41:49 02:45:27 21° 266° (W) 02:49:05 437.325
Gurwin Techsat 1B 08 Dec 02:52:05 02:56:43 31° 294° (WNW) 03:01:20 435.225
MOZHAYETS 4 08 Dec 02:58:54 03:03:22 52° 260° (W) 03:07:52
GONETS M04 08 Dec 03:01:01 03:04:36 13° 305° (NW) 03:08:13
Cosmos 2499 08 Dec 03:07:40 03:09:24 11° 309° (NW) 03:11:10 435.465 / 435.565
CUBESAT XI-V 08 Dec 03:07:51 03:11:46 28° 68° (ENE) 03:15:42 437.345
SO-50 08 Dec 03:09:44 03:13:49 31° 47° (NE) 03:17:50 436.795
ITAMSAT 1 08 Dec 03:11:38 03:16:51 82° 285° (WNW) 03:22:00 435.822/435.867
KKS-1 08 Dec 03:13:28 03:17:56 84° 254° (WSW) 03:22:28 437.445
STARS 08 Dec 03:13:43 03:17:57 46° 71° (ENE) 03:22:12 437.465
BEESAT 3 08 Dec 03:33:24 03:36:41 27° 115° (ESE) 03:40:03 437.485
AO-7 08 Dec 03:37:38 03:46:04 78° 107° (ESE) 03:54:26 29.400- 29.500
GOMX 1 08 Dec 04:06:45 04:08:21 11° 86° (E) 04:09:58 467.674
BEESAT 2 08 Dec 04:07:06 04:10:29 28° 115° (ESE) 04:13:56 435.950
PHONESAT 2.4 08 Dec 04:15:07 04:16:07 12° 208° (SSW) 04:17:06 2401.200-2431.200
HORYU 2 08 Dec 04:18:55 04:22:10 20° 94° (E) 04:25:22 437.375
Cosmos 2504 08 Dec 04:20:18 04:24:18 14° 54° (NE) 04:28:13 435.465 / 435.565
YUBILEINY 08 Dec 04:32:28 04:40:16 33° 69° (ENE) 04:48:00 435.215
BRITE-PL 08 Dec 04:38:56 04:44:18 52° 99° (E) 04:49:49 437.365/2234.400
RS-15 08 Dec 04:43:25 04:50:06 17° 95° (E) 04:56:54 29.354- 29.394
CUBESAT XI-V 08 Dec 04:45:05 04:49:04 29° 265° (W) 04:53:06 437.345
SO-50 08 Dec 04:50:15 04:54:15 32° 245° (WSW) 04:58:12 436.795
STARS 08 Dec 04:51:36 04:54:31 17° 268° (W) 04:57:28 437.465
ITAMSAT 1 08 Dec 04:53:44 04:55:28 12° 303° (WNW) 04:57:12 435.822/435.867
CUTE-I 08 Dec 05:02:22 05:06:01 18° 92° (E) 05:09:37 437.470
Cosmos 2491 08 Dec 05:03:50 05:10:23 24° 80° (E) 05:16:55 435.465 / 435.565
BEESAT 3 08 Dec 05:10:49 05:14:15 29° 312° (NW) 05:17:44 437.485
NOAA 15 08 Dec 05:17:16 05:21:46 28° 95° (E) 05:26:14 137.62
Cubesat XI-IV 08 Dec 05:28:17 05:33:00 31° 96° (E) 05:37:41 437.490
NOAA 18 08 Dec 05:30:03 05:34:10 21° 93° (E) 05:38:14 137.9125
AO-7 08 Dec 05:31:25 05:38:01 27° 307° (NW) 05:44:36 29.400- 29.500
LilacSat-2 08 Dec 05:35:11 05:38:42 36° 98° (E) 05:42:11 437.200
AIST 1 08 Dec 05:38:22 05:42:17 30° 75° (ENE) 05:46:10
DOVE 4 08 Dec 05:41:07 05:46:02 37° 96° (E) 05:50:45 437.250
GOMX 1 08 Dec 05:41:37 05:47:09 85° 103° (ESE) 05:52:37 467.674
BEESAT 2 08 Dec 05:44:48 05:48:15 28° 313° (NW) 05:51:44 435.950
HORYU 2 08 Dec 05:54:43 05:58:51 39° 290° (WNW) 06:02:58 437.375
STRAND 1 08 Dec 06:00:16 06:05:20 65° 73° (ENE) 06:10:26 437.568
Cosmos 2504 08 Dec 06:11:01 06:19:46 64° 78° (ENE) 06:27:58 435.465 / 435.565
BRITE-PL 08 Dec 06:18:07 06:22:25 24° 295° (WNW) 06:26:51 437.365/2234.400
YUBILEINY 08 Dec 06:28:55 06:37:29 58° 269° (W) 06:46:02 435.215
CANX-2 08 Dec 06:30:57 06:33:50 18° 92° (E) 06:36:42 2200.000
CUTE-I 08 Dec 06:41:12 06:46:26 58° 288° (WNW) 06:51:37 437.470
CINEMA 3 08 Dec 06:43:17 06:47:44 37° 96° (E) 06:51:57 145.822/145.860
RS-15 08 Dec 06:48:33 07:00:12 74° 117° (ESE) 07:12:25 29.354- 29.394
SEEDS 08 Dec 06:51:35 06:54:24 17° 92° (E) 06:57:13 437.485
AIST 2 08 Dec 06:53:45 06:57:38 42° 117° (ESE) 07:01:35 435.215
NOAA 15 08 Dec 06:56:44 07:01:36 39° 292° (WNW) 07:06:28 137.62
Cosmos 2491 08 Dec 06:57:33 07:06:19 73° 280° (W) 07:15:05 435.465 / 435.565
COMPASS 1 08 Dec 06:58:10 07:00:15 13° 91° (E) 07:02:21 437.405
Cubesat XI-IV 08 Dec 07:08:16 07:13:04 35° 293° (WNW) 07:17:49 437.490
NOAA 18 08 Dec 07:09:44 07:15:09 55° 290° (WNW) 07:20:29 137.9125
LilacSat-2 08 Dec 07:10:20 07:12:41 16° 294° (WNW) 07:15:02 437.200
AIST 1 08 Dec 07:16:12 07:19:42 23° 272° (W) 07:23:11
DOVE 4 08 Dec 07:19:01 07:23:32 29° 293° (WNW) 07:27:55 437.250
GOMX 1 08 Dec 07:21:27 07:24:28 15° 300° (WNW) 07:27:30 467.674
HO-68 08 Dec 07:21:40 07:28:46 56° 102° (ESE) 07:35:48 435.675
UWE-3 08 Dec 07:24:35 07:27:03 15° 91° (E) 07:29:28 435.000/436.395/437.385
STRAND 1 08 Dec 07:41:56 07:44:57 16° 269° (W) 07:48:00 437.568
CUTE 1.7 + AOD 2 08 Dec 07:47:08 07:51:21 75° 285° (WNW) 07:55:34 437.475
UNISAT 6 08 Dec 07:51:05 07:53:47 15° 63° (ENE) 07:56:30 437.425
AAUSAT CUBESAT 2 08 Dec 07:59:20 08:03:23 50° 100° (E) 08:07:25 437.432
ZACube-1 08 Dec 07:59:39 08:02:57 22° 93° (E) 08:06:11 437.345
Cosmos 2504 08 Dec 08:05:23 08:12:26 29° 279° (W) 08:19:11 435.465 / 435.565
FUNcube-1 08 Dec 08:05:53 08:09:17 23° 94° (E) 08:12:37 145.935
CANX-2 08 Dec 08:05:53 08:09:50 40° 288° (WNW) 08:13:47 2200.000
PRISM 08 Dec 08:09:27 08:13:31 85° 257° (WSW) 08:17:38 437.425
TIGRISAT 08 Dec 08:18:55 08:22:48 27° 67° (ENE) 08:26:40 435.000
CINEMA 3 08 Dec 08:20:49 08:24:37 24° 294° (WNW) 08:28:18 145.822/145.860
ANTELSAT 08 Dec 08:20:52 08:24:53 29° 68° (ENE) 08:28:52 437.575/2403.000
CUBEBUG 2 08 Dec 08:22:05 08:26:29 79° 284° (WNW) 08:30:43 437.445
SEEDS 08 Dec 08:26:20 08:30:15 40° 288° (WNW) 08:34:10 437.485
COMPASS 1 08 Dec 08:32:03 08:36:06 51° 287° (WNW) 08:40:08 437.405
Oscar 11 08 Dec 08:32:53 08:37:02 46° 99° (E) 08:41:10 145.826/435.025
AIST 2 08 Dec 08:33:02 08:36:18 22° 316° (NW) 08:39:36 435.215
DELFI C3 08 Dec 08:38:00 08:40:46 18° 93° (E) 08:43:32 145.870
CUSAT 1 08 Dec 08:43:58 08:46:58 60° 99° (E) 08:49:37 437.405
AO-85 08 Dec 08:53:30 08:56:44 23° 44° (NE) 08:59:51 145.980
UWE-3 08 Dec 08:59:41 09:03:49 47° 288° (WNW) 09:07:49 435.000/436.395/437.385
Cosmos 2491 08 Dec 09:00:05 09:04:53 15° 303° (WNW) 09:09:43 435.465 / 435.565
RS-15 08 Dec 09:02:36 09:13:45 42° 323° (NW) 09:25:20 29.354- 29.394
Cosmos 2499 08 Dec 09:05:42 09:09:37 14° 55° (NE) 09:13:25 435.465 / 435.565
HUMSAT D 08 Dec 09:06:30 09:09:30 20° 93° (E) 09:12:30 437.325/437.525
HO-68 08 Dec 09:09:59 09:16:05 31° 300° (WNW) 09:22:10 435.675
GONETS M04 08 Dec 09:12:07 09:16:22 14° 56° (NE) 09:20:37
UNISAT 6 08 Dec 09:25:22 09:30:00 62° 259° (W) 09:34:37 437.425
NANOSAT C BR1 08 Dec 09:32:57 09:35:48 18° 64° (ENE) 09:38:38 145.865
ZACube-1 08 Dec 09:35:33 09:39:17 31° 291° (WNW) 09:42:57 437.345
AAUSAT CUBESAT 2 08 Dec 09:36:07 09:38:26 15° 296° (WNW) 09:40:45 437.432
QB50P2 08 Dec 09:40:33 09:43:58 24° 67° (ENE) 09:47:24 145.880/145.840
POLYITAN 1 08 Dec 09:41:05 09:44:27 23° 67° (ENE) 09:47:49 437.675
FUNcube-1 08 Dec 09:41:53 09:45:32 29° 291° (WNW) 09:49:06 145.935
JAS-2 08 Dec 09:43:27 09:49:26 47° 71° (ENE) 09:54:49 435.910
DANDE 08 Dec 09:52:29 09:56:52 74° 278° (W) 10:00:13 436.750
QB50P1 08 Dec 09:52:52 09:56:35 30° 69° (ENE) 10:00:20 145.935-145.965
DUCHIFAT 1 08 Dec 09:53:03 09:56:34 26° 68° (ENE) 10:00:05 145.980
TIGRISAT 08 Dec 09:55:08 09:59:21 33° 263° (W) 10:03:33 435.000
ANTELSAT 08 Dec 09:57:25 10:01:31 30° 264° (W) 10:05:35 437.575/2403.000
Oscar 11 08 Dec 10:10:00 10:12:48 17° 295° (WNW) 10:15:36 145.826/435.025
DELFI C3 08 Dec 10:12:03 10:15:41 35° 289° (WNW) 10:19:19 145.870
POPSAT HIP 1 08 Dec 10:14:10 10:18:18 49° 72° (ENE) 10:22:27 437.405
AO-85 08 Dec 10:33:37 10:37:13 35° 244° (WSW) 10:40:45 145.980
BUGSAT 1 08 Dec 10:39:30 10:43:16 31° 69° (ENE) 10:47:03 437.445
HUMSAT D 08 Dec 10:41:32 10:45:12 33° 290° (WNW) 10:48:51 437.325/437.525
PCSat 08 Dec 10:41:39 10:47:03 77° 118° (ESE) 10:52:29 145.827
Oscar 19 08 Dec 10:42:09 10:43:37 11° 57° (ENE) 10:45:05 437.125/150
AISAT 08 Dec 10:55:39 10:58:55 20° 93° (E) 11:02:09 437.250
Cosmos 2499 08 Dec 10:56:13 11:04:47 66° 78° (ENE) 11:12:39 435.465 / 435.565
ESTCUBE 1 08 Dec 10:58:54 11:03:18 49° 100° (E) 11:07:40 437.505/2401.250
GONETS M04 08 Dec 11:06:22 11:15:05 68° 79° (E) 11:23:46
NANOSAT C BR1 08 Dec 11:07:05 11:11:09 44° 261° (W) 11:15:16 145.865
CUBEBUG 1 08 Dec 11:14:16 11:18:31 43° 99° (E) 11:22:44 437.445
QB50P2 08 Dec 11:15:47 11:19:36 31° 263° (W) 11:23:27 145.880/145.840
POLYITAN 1 08 Dec 11:16:10 11:20:03 33° 263° (W) 11:23:57 437.675
RS-15 08 Dec 11:21:15 11:30:51 25° 357° (N) 11:40:32 29.354- 29.394
DUCHIFAT 1 08 Dec 11:28:27 11:32:09 28° 264° (W) 11:35:51 145.980
QB50P1 08 Dec 11:28:49 11:32:20 25° 265° (W) 11:35:53 145.935-145.965
JAS-2 08 Dec 11:29:24 11:34:39 27° 264° (W) 11:39:28 435.910
VELOX 1 08 Dec 11:31:36 11:35:54 44° 99° (E) 11:40:09 145.980
DX 1 08 Dec 11:36:50 11:40:33 26° 96° (E) 11:44:15 434.975-435.025
UKube-1 08 Dec 11:39:14 11:42:32 21° 94° (E) 11:45:48 .
SPROUT 08 Dec 11:45:57 11:50:02 42° 98° (E) 11:54:05 437.525
BEESAT 3 08 Dec 11:49:27 11:52:40 23° 45° (NE) 11:55:53 437.485
POPSAT HIP 1 08 Dec 11:51:51 11:54:20 15° 269° (W) 11:56:50 437.405
50 SAT 08 Dec 12:11:54 12:15:26 66° 285° (WNW) 12:18:58 437.505
BUGSAT 1 08 Dec 12:15:16 12:18:39 23° 266° (W) 12:22:03 437.445
Oscar 19 08 Dec 12:16:57 12:22:04 80° 74° (ENE) 12:27:14 437.125/150
BEESAT 2 08 Dec 12:24:01 12:27:22 24° 46° (NE) 12:30:41 435.950
PCSat 08 Dec 12:27:08 12:31:03 20° 317° (NW) 12:35:01 145.827
AISAT 08 Dec 12:31:19 12:35:32 40° 289° (WNW) 12:39:42 437.250
Gurwin Techsat 1B 08 Dec 12:33:33 12:38:46 59° 72° (ENE) 12:44:00 435.225
ESTCUBE 1 08 Dec 12:36:42 12:39:44 18° 296° (WNW) 12:42:44 437.505/2401.250
AO-7 08 Dec 12:46:53 12:53:25 27° 53° (NE) 12:59:57 29.400- 29.500
Cosmos 2499 08 Dec 12:50:25 12:57:05 27° 279° (W) 13:03:25 435.465 / 435.565
CUBEBUG 1 08 Dec 12:51:21 12:54:28 19° 295° (WNW) 12:57:36 437.445
ITAMSAT 1 08 Dec 12:52:25 12:56:21 22° 63° (ENE) 13:00:18 435.822/435.867
TISAT 1 08 Dec 12:58:38 13:02:40 42° 99° (E) 13:06:39 437.305
GONETS M04 08 Dec 13:04:20 13:11:06 26° 279° (W) 13:17:53
VELOX 1 08 Dec 13:08:52 13:12:01 19° 296° (WNW) 13:15:10 145.980
DX 1 08 Dec 13:12:53 13:16:42 29° 292° (WNW) 13:20:29 434.975-435.025
UKube-1 08 Dec 13:14:40 13:18:39 36° 290° (WNW) 13:22:37 .
SPROUT 08 Dec 13:22:41 13:25:38 18° 295° (WNW) 13:28:35 437.525
BEESAT 3 08 Dec 13:26:42 13:30:25 37° 243° (WSW) 13:34:05 437.485
AUBIESAT-1 08 Dec 13:35:18 13:37:42 14° 94° (E) 13:40:03 437.475
RS-15 08 Dec 13:37:11 13:48:23 37° 31° (NNE) 13:59:21 29.354- 29.394
M-CUBED/EXP-1 PRIME 08 Dec 13:48:45 13:52:34 25° 99° (E) 13:56:14 437.505
Oscar 19 08 Dec 13:59:58 14:02:00 12° 271° (W) 14:04:02 437.125/150
BEESAT 2 08 Dec 14:01:32 14:05:14 36° 244° (WSW) 14:08:55 435.950
SWISSCUBE 08 Dec 14:06:55 14:11:32 49° 100° (E) 14:16:08 437.505
BEESAT 08 Dec 14:10:41 14:15:17 48° 100° (E) 14:19:52 436.000
Gurwin Techsat 1B 08 Dec 14:15:33 14:19:06 18° 269° (W) 14:22:40 435.225
ITAMSAT 1 08 Dec 14:30:25 14:35:28 50° 260° (W) 14:40:33 435.822/435.867
TISAT 1 08 Dec 14:35:07 14:37:59 18° 295° (WNW) 14:40:48 437.305
AO-7 08 Dec 14:37:04 14:45:22 78° 254° (WSW) 14:53:45 29.400- 29.500
ITUPSAT 1 08 Dec 14:40:03 14:44:51 88° 285° (WNW) 14:49:37 437.325
MOZHAYETS 4 08 Dec 14:53:15 14:57:24 33° 97° (E) 15:01:30
ISS 08 Dec 15:01:49 15:05:02 56° 142° (SE) 15:08:16 145.825
KKS-1 08 Dec 15:04:46 15:07:48 18° 93° (E) 15:10:48 437.445
AUBIESAT-1 08 Dec 15:07:59 15:12:31 61° 292° (WNW) 15:16:49 437.475
Cosmos 2491 08 Dec 15:13:51 15:16:43 12° 53° (NE) 15:19:35 435.465 / 435.565
AIST 2 08 Dec 15:14:17 15:18:14 36° 50° (NE) 15:22:08 435.215
GOMX 1 08 Dec 15:15:55 15:17:37 12° 58° (ENE) 15:19:22 467.674
HORYU 2 08 Dec 15:17:33 15:20:54 21° 65° (ENE) 15:24:17 437.375
O/OREOS (USA 219) 08 Dec 15:20:45 15:25:19 86° 294° (WNW) 15:29:53 437.305
M-CUBED/EXP-1 PRIME 08 Dec 15:22:47 15:27:04 37° 296° (WNW) 15:31:11 437.505
SWISSCUBE 08 Dec 15:45:36 15:48:58 19° 297° (WNW) 15:52:18 437.505
BEESAT 08 Dec 15:49:18 15:52:43 20° 297° (WNW) 15:56:06 436.000
RS-15 08 Dec 15:50:10 16:02:37 88° 241° (WSW) 16:14:39 29.354- 29.394
BRITE-PL 08 Dec 15:50:52 15:55:07 54° 73° (ENE) 15:59:43 437.365/2234.400
LilacSat-2 08 Dec 16:18:04 16:21:00 21° 68° (ENE) 16:23:56 437.200
ITUPSAT 1 08 Dec 16:20:38 16:21:55 11° 302° (WNW) 16:23:12 437.325
CUTE-I 08 Dec 16:24:22 16:29:07 33° 67° (ENE) 16:33:52 437.470
MOZHAYETS 4 08 Dec 16:30:41 16:34:24 25° 293° (WNW) 16:38:07
AO-7 08 Dec 16:35:06 16:39:24 15° 272° (W) 16:43:45 29.400- 29.500
NOAA 15 08 Dec 16:37:48 16:42:47 47° 70° (ENE) 16:47:48 137.62
STARS 08 Dec 16:38:21 16:42:48 82° 104° (ESE) 16:47:11 437.465
ISS 08 Dec 16:38:50 16:41:43 27° 340° (NNW) 16:44:36 145.825
CUBESAT XI-V 08 Dec 16:39:58 16:44:37 64° 101° (E) 16:49:16 437.345
KKS-1 08 Dec 16:40:18 16:44:35 45° 289° (WNW) 16:48:49 437.445
DOVE 4 08 Dec 16:46:41 16:51:11 38° 69° (ENE) 16:55:55 437.250
GOMX 1 08 Dec 16:50:10 16:54:49 89° 257° (WSW) 16:59:52 467.674
Cubesat XI-IV 08 Dec 16:50:39 16:55:52 55° 71° (ENE) 17:01:07 437.490
HORYU 2 08 Dec 16:53:00 16:57:12 39° 261° (W) 17:01:25 437.375
AIST 2 08 Dec 16:53:07 16:56:32 24° 247° (WSW) 16:59:56 435.215
NOAA 18 08 Dec 16:56:28 17:01:40 43° 68° (ENE) 17:06:54 137.9125
O/OREOS (USA 219) 08 Dec 17:04:00 17:05:26 11° 311° (NW) 17:06:53 437.305
Cosmos 2491 08 Dec 17:07:09 17:15:46 59° 77° (ENE) 17:24:20 435.465 / 435.565
CANX-2 08 Dec 17:25:05 17:27:25 15° 64° (ENE) 17:29:44 2200.000
BRITE-PL 08 Dec 17:31:41 17:34:05 14° 272° (W) 17:36:35 437.365/2234.400
YUBILEINY 08 Dec 17:34:39 17:42:18 36° 85° (E) 17:50:00 435.215
CINEMA 3 08 Dec 17:44:39 17:49:14 38° 70° (ENE) 17:53:52 145.822/145.860
SEEDS 08 Dec 17:44:44 17:46:54 14° 63° (ENE) 17:49:02 437.485
PCSat 08 Dec 17:47:00 17:49:55 14° 37° (NE) 17:52:49 145.827
CUBEBUG 2 08 Dec 17:47:19 17:48:38 11° 60° (ENE) 17:49:58 437.445
HO-68 08 Dec 17:50:49 17:57:31 45° 65° (ENE) 18:04:15 435.675
COMPASS 1 08 Dec 17:51:05 17:51:58 11° 62° (ENE) 17:52:52 437.405
LilacSat-2 08 Dec 17:51:48 17:55:09 28° 264° (W) 17:58:29 437.200
CUTE-I 08 Dec 18:04:17 18:09:06 33° 263° (W) 18:13:57 437.470
RS-15 08 Dec 18:04:29 18:13:22 24° 261° (W) 18:22:05 29.354- 29.394
AIST 1 08 Dec 18:09:16 18:12:07 17° 86° (E) 18:14:59
STRAND 1 08 Dec 18:10:57 18:14:44 20° 93° (E) 18:18:28 437.568
ISS 08 Dec 18:16:48 18:19:01 16° 360° (N) 18:21:14 145.825
STARS 08 Dec 18:17:16 18:18:27 11° 301° (WNW) 18:19:39 437.465
NOAA 15 08 Dec 18:18:45 18:22:47 22° 267° (W) 18:26:50 137.62
CUBESAT XI-V 08 Dec 18:18:52 18:21:28 15° 298° (WNW) 18:24:04 437.345
UWE-3 08 Dec 18:22:05 18:24:53 16° 64° (ENE) 18:27:40 435.000/436.395/437.385
DOVE 4 08 Dec 18:24:55 18:28:58 26° 267° (W) 18:33:12 437.250
Cubesat XI-IV 08 Dec 18:32:25 18:36:17 20° 268° (W) 18:40:09 437.490
NOAA 18 08 Dec 18:37:47 18:42:27 27° 265° (W) 18:47:08 137.9125
CUTE 1.7 + AOD 2 08 Dec 18:39:56 18:44:08 81° 78° (ENE) 18:48:22 437.475
Cosmos 2504 08 Dec 18:48:53 18:56:56 53° 89° (E) 19:05:26 435.465 / 435.565
AAUSAT CUBESAT 2 08 Dec 18:50:00 18:53:44 35° 71° (ENE) 18:57:30 437.432
ZACube-1 08 Dec 18:55:56 18:59:20 21° 66° (ENE) 19:02:41 437.345
CANX-2 08 Dec 18:58:44 19:02:50 52° 260° (W) 19:06:57 2200.000
FUNcube-1 08 Dec 19:01:50 19:05:19 22° 67° (ENE) 19:08:45 145.935
SO-50 08 Dec 19:03:56 19:08:40 69° 121° (ESE) 19:13:22 436.795
Cosmos 2491 08 Dec 19:04:49 19:12:02 31° 277° (W) 19:19:16 435.465 / 435.565
CUSAT 1 08 Dec 19:12:28 19:16:10 42° 79° (ENE) 19:20:57 437.405
SEEDS 08 Dec 19:18:03 19:22:08 54° 260° (W) 19:26:14 437.485
CUBEBUG 2 08 Dec 19:19:46 19:24:31 90° 124° (SE) 19:29:16 437.445
CINEMA 3 08 Dec 19:22:18 19:26:25 26° 267° (W) 19:30:36 145.822/145.860
COMPASS 1 08 Dec 19:22:48 19:26:55 73° 258° (WSW) 19:31:03 437.405
DELFI C3 08 Dec 19:25:39 19:27:11 12° 63° (ENE) 19:28:43 145.870
Oscar 11 08 Dec 19:28:04 19:32:03 38° 71° (ENE) 19:36:03 145.826/435.025
PCSat 08 Dec 19:28:54 19:34:20 69° 58° (ENE) 19:39:44 145.827
YUBILEINY 08 Dec 19:30:23 19:38:46 51° 285° (WNW) 19:47:17 435.215
HO-68 08 Dec 19:38:47 19:45:17 37° 263° (W) 19:51:52 435.675
AIST 1 08 Dec 19:45:18 19:49:21 39° 283° (WNW) 19:53:29
STRAND 1 08 Dec 19:49:15 19:54:09 49° 290° (WNW) 19:59:02 437.568
PRISM 08 Dec 19:51:59 19:53:45 12° 91° (E) 19:55:31 437.425
ISS 08 Dec 19:53:26 19:56:19 27° 20° (NNE) 19:59:12 145.825
UWE-3 08 Dec 19:56:17 20:00:53 58° 260° (W) 20:05:26 435.000/436.395/437.385
HUMSAT D 08 Dec 19:58:47 20:01:25 16° 65° (ENE) 20:04:01 437.325/437.525
AAUSAT CUBESAT 2 08 Dec 20:26:24 20:29:19 19° 267° (W) 20:32:15 437.432
DANDE 08 Dec 20:27:38 20:30:35 64° 80° (E) 20:34:15 436.750
ZACube-1 08 Dec 20:31:06 20:35:22 39° 262° (W) 20:39:35 437.345
FUNcube-1 08 Dec 20:37:09 20:41:20 37° 263° (W) 20:45:29 145.935
Cosmos 2504 08 Dec 20:42:55 20:50:36 37° 290° (WNW) 20:58:39 435.465 / 435.565
SO-50 08 Dec 20:46:07 20:49:35 20° 319° (NW) 20:53:02 436.795
CUSAT 1 08 Dec 20:55:23 20:57:59 16° 266° (W) 21:00:57 437.405
DELFI C3 08 Dec 20:57:39 21:01:30 57° 260° (W) 21:05:23 145.870
Oscar 11 08 Dec 21:05:11 21:08:18 19° 267° (W) 21:11:27 145.826/435.025
PCSat 08 Dec 21:13:45 21:17:07 17° 255° (WSW) 21:20:30 145.827
UNISAT 6 08 Dec 21:17:03 21:20:41 25° 95° (E) 21:24:14 437.425
PRISM 08 Dec 21:25:17 21:29:23 57° 286° (WNW) 21:33:28 437.425
ISS 08 Dec 21:29:44 21:33:00 57° 218° (SW) 21:36:15 145.825
HUMSAT D 08 Dec 21:32:39 21:36:41 45° 261° (W) 21:40:42 437.325/437.525
TIGRISAT 08 Dec 21:45:39 21:49:54 48° 99° (E) 21:54:02 435.000
ANTELSAT 08 Dec 21:47:54 21:52:12 54° 100° (E) 21:56:24 437.575/2403.000
AISAT 08 Dec 21:53:44 21:56:56 20° 64° (ENE) 22:00:09 437.250
ESTCUBE 1 08 Dec 21:58:49 22:03:06 48° 72° (ENE) 22:07:25 437.505/2401.250
PHONESAT 2.4 08 Dec 22:06:34 22:07:27 11° 152° (SSE) 22:08:21 2401.200-2431.200
CUBEBUG 1 08 Dec 22:10:38 22:14:40 38° 70° (ENE) 22:18:46 437.445
GONETS M04 08 Dec 22:17:00 22:21:08 14° 74° (ENE) 22:25:16
VELOX 1 08 Dec 22:29:16 22:33:25 42° 71° (ENE) 22:37:36 145.980
DX 1 08 Dec 22:33:00 22:36:34 25° 67° (ENE) 22:40:10 434.975-435.025
UKube-1 08 Dec 22:34:33 22:37:41 20° 65° (ENE) 22:40:51 .
JAS-2 08 Dec 22:36:12 22:40:56 34° 97° (E) 22:45:54 435.910
SPROUT 08 Dec 22:39:48 22:43:42 35° 70° (ENE) 22:47:38 437.525
50 SAT 08 Dec 22:47:26 22:50:49 50° 74° (ENE) 22:54:15 437.505
NANOSAT C BR1 08 Dec 22:50:58 22:54:32 26° 95° (E) 22:58:05 145.865
UNISAT 6 08 Dec 22:53:35 22:57:24 29° 292° (WNW) 23:01:07 437.425
QB50P2 08 Dec 22:59:35 23:03:33 38° 98° (E) 23:07:29 145.880/145.840
POLYITAN 1 08 Dec 23:00:04 23:03:59 36° 97° (E) 23:07:51 437.675
DUCHIFAT 1 08 Dec 23:11:14 23:15:14 40° 98° (E) 23:19:11 145.980
QB50P1 08 Dec 23:11:56 23:16:04 48° 100° (E) 23:20:08 145.935-145.965
TIGRISAT 08 Dec 23:23:26 23:26:11 17° 297° (WNW) 23:28:55 435.000
ANTELSAT 08 Dec 23:25:57 23:28:27 15° 297° (WNW) 23:30:55 437.575/2403.000
AISAT 08 Dec 23:28:53 23:33:05 42° 261° (W) 23:37:19 437.250
Cosmos 2499 08 Dec 23:31:52 23:40:08 53° 89° (E) 23:48:41 435.465 / 435.565
POPSAT HIP 1 08 Dec 23:33:43 23:37:58 85° 99° (E) 23:42:11 437.405
ESTCUBE 1 08 Dec 23:37:19 23:40:10 17° 268° (W) 23:43:02 437.505/2401.250
PHONESAT 2.4 08 Dec 23:39:42 23:42:12 37° 167° (SSE) 23:44:41 2401.200-2431.200
CUBEBUG 1 08 Dec 23:47:54 23:51:05 20° 267° (W) 23:54:19 437.445
TISAT 1 08 Dec 23:50:37 23:54:28 34° 70° (ENE) 23:58:20 437.305
O/OREOS (USA 219) 08 Dec 23:51:34 23:55:05 22° 56° (NE) 23:58:35 437.305
BUGSAT 1 08 Dec 23:55:26 23:59:30 47° 99° (E) 00:03:28 437.445
VELOX 1 09 Dec 00:06:57 00:10:03 19° 267° (W) 00:13:11 145.980
GONETS M04 09 Dec 00:07:41 00:16:22 77° 94° (E) 00:25:03
DX 1 09 Dec 00:08:48 00:12:38 30° 263° (W) 00:16:30 434.975-435.025
UKube-1 09 Dec 00:09:25 00:13:27 39° 262° (W) 00:17:31 .
ITUPSAT 1 09 Dec 00:12:14 00:14:44 14° 60° (ENE) 00:17:14 437.325
SPROUT 09 Dec 00:16:25 00:19:42 21° 266° (W) 00:23:01 437.525
AUBIESAT-1 09 Dec 00:20:40 00:23:49 20° 59° (ENE) 00:27:05 437.475
JAS-2 09 Dec 00:21:31 00:26:00 30° 293° (WNW) 00:30:41 435.910
NANOSAT C BR1 09 Dec 00:26:37 00:30:12 27° 292° (WNW) 00:33:44 145.865
Oscar 19 09 Dec 00:28:17 00:32:40 27° 95° (E) 00:37:01 437.125/150
M-CUBED/EXP-1 PRIME 09 Dec 00:34:50 00:38:37 32° 63° (ENE) 00:42:38 437.505
QB50P2 09 Dec 00:36:01 00:39:05 20° 295° (WNW) 00:42:08 145.880/145.840
POLYITAN 1 09 Dec 00:36:24 00:39:32 21° 294° (WNW) 00:42:39 437.675
AO-85 09 Dec 00:47:10 00:52:01 58° 120° (ESE) 00:56:32 145.980
DUCHIFAT 1 09 Dec 00:47:42 00:50:37 18° 295° (WNW) 00:53:30 145.980
QB50P1 09 Dec 00:48:51 00:51:26 16° 296° (WNW) 00:53:59 145.935-145.965
Gurwin Techsat 1B 09 Dec 00:49:48 00:53:54 22° 93° (E) 00:57:57 435.225
SWISSCUBE 09 Dec 01:13:43 01:18:25 61° 73° (ENE) 01:23:07 437.505
PHONESAT 2.4 09 Dec 01:14:37 01:17:14 54° 183° (S) 01:19:49 2401.200-2431.200
BEESAT 09 Dec 01:17:25 01:22:06 60° 73° (ENE) 01:26:48 436.000
Cosmos 2499 09 Dec 01:25:41 01:33:32 37° 290° (WNW) 01:41:39 435.465 / 435.565
TISAT 1 09 Dec 01:26:57 01:30:11 21° 266° (W) 01:33:25 437.305
O/OREOS (USA 219) 09 Dec 01:30:28 01:34:38 39° 254° (WSW) 01:38:46 437.305
BUGSAT 1 09 Dec 01:31:56 01:34:27 16° 296° (WNW) 01:36:58 437.445
ITUPSAT 1 09 Dec 01:47:12 01:51:58 71° 258° (WSW) 01:56:46 437.325
AUBIESAT-1 09 Dec 01:53:48 01:57:51 45° 257° (WSW) 02:02:09 437.475
MOZHAYETS 4 09 Dec 01:55:37 01:59:44 34° 70° (ENE) 02:03:52
SO-50 09 Dec 01:55:57 01:58:04 13° 34° (NE) 02:00:10 436.795
KKS-1 09 Dec 02:03:32 02:06:40 19° 64° (ENE) 02:09:48 437.445
Oscar 19 09 Dec 02:07:15 02:12:04 39° 291° (WNW) 02:16:51 437.125/150
M-CUBED/EXP-1 PRIME 09 Dec 02:09:36 02:13:05 25° 261° (W) 02:16:48 437.505
